Flag for Germany Weather past 2 weeks in Tuttlingen, Baden-Württemberg, Germany

Now
89 °F

Sunny.


Feels Like: 87 °F
Forecast: 54 / 90 °F
Wind: 2 mph from East

Location: Konstanz

Current Time: Jul 1, 2015 at 7:05:41 PM

Latest Report: Jul 1, 2015 at 6:00 PM


Visibility: 22 mi

Pressure: 29.99 "Hg

Humidity: 31%

Dew point: 54 °F

Location of TuttlingenLocation

Historic Weather in Tuttlingen — Graph

°F

Tuttlingen temperature yesterday

Maximum temperature yesterday: 88 °F (at 6:00 PM)
Minimum temperature yesterday: 62 °F (at 5:00 AM)
Average temperature yesterday: 75 °F

Past Weeks' High & Low Weather Summary

 TemperatureHumidityPressure
High91 °F (Jul 1, 5:00 PM)97% (Jun 18, 11:00 PM)30.23 "Hg (Jun 18, 11:00 PM)
Low49 °F (Jun 24, 5:00 AM)21% (Jun 26, 4:00 PM)29.72 "Hg (Jun 22, 10:00 PM)
Average64 °F67%30.09 "Hg
* Reported Jun 16 6:00 PM — Jul 1 6:00 PM, Tuttlingen, Weather by CustomWeather, © 2015

Note: Actual official high and low records may vary slightly from our data, if they occured in-between our weather recording intervals... More about our weather records

Advertising

Tuttlingen weather history for previous 24 hours

 ConditionsComfort  
Time TempWeatherWind HumidityBarometerVisibility
6:00 PM
Wed, Jul 1
89 °FSunny.2 mph31%29.99 "Hg22 mi
5:00 PM91 °FSunny.2 mph22%29.99 "Hg19 mi
4:00 PM90 °FSunny.2 mph26%30.01 "Hg22 mi
3:00 PM89 °FSunny.1 mph25%30.01 "Hg25 mi
2:00 PM84 °FSunny.2 mph37%30.03 "Hg25 mi
1:00 PM83 °FPassing clouds.2 mph43%30.04 "Hg25 mi
12:00 PM80 °FSunny.1 mph48%30.06 "Hg25 mi
11:00 AM78 °FSunny.1 mph49%30.07 "Hg25 mi
10:00 AM75 °FPassing clouds.1 mph51%30.08 "Hg25 mi
9:00 AM72 °FSunny.1 mph61%30.08 "Hg25 mi
8:00 AM67 °FSunny.1 mph75%30.10 "Hg22 mi
7:00 AM64 °FSunny.2 mph84%30.11 "Hg19 mi
6:00 AM64 °FSunny.1 mph86%30.09 "Hg14 mi
5:00 AM64 °FClear.2 mph85%30.08 "Hg19 mi
4:00 AM65 °FClear.2 mph83%30.07 "Hg22 mi
3:00 AM66 °FClear.2 mph78%30.07 "Hg22 mi
2:00 AM68 °FClear.2 mph70%30.07 "Hg25 mi
1:00 AM71 °FClear.2 mph59%30.07 "Hg31 mi
12:00 AM73 °FClear.2 mph53%30.06 "Hg37 mi
11:00 PM
Tue, Jun 30
75 °FClear.2 mph50%30.06 "Hg40 mi
10:00 PM77 °FClear.2 mph48%30.04 "Hg37 mi
9:00 PM80 °FSunny.2 mph42%30.02 "Hg34 mi
8:00 PM86 °FSunny.2 mph32%30.00 "Hg37 mi
7:00 PM88 °FSunny.2 mph30%30.00 "Hg40 mi
Weather by CustomWeather, © 2015

See weather overviewHow to use our weather pages